KBKS

Details ICAO KBKS
Name BROOKS CO
Region United States
Timezone America/Chicago (UTC-5.0)
Plans Departing 2
Arriving 8
Stats Elevation 112 ft / 34 m (AMSL)
Location 27.206555° -98.121482°
Runways 2
Magnetic Variation 4.015° E
Sunrise 2018-05-22 11:42:23 UTC / 2018-05-22 06:42:23 Local
Sunset 2018-05-23 01:18:49 UTC / 2018-05-22 20:18:49 Local
Advertisement - Login to hide

Runways

ID Width Length Bearing (true) Bearing (mag) Surface Threshold Offset Overrun Length
14 40 ft / 12 m 3,079 ft / 938 m 149.60° 145.59° Asphalt 0 ft / 0 m 0 ft / 0 m
17 75 ft / 23 m 5,021 ft / 1,530 m 179.90° 175.89° Asphalt 0 ft / 0 m 0 ft / 0 m
32 40 ft / 12 m 3,079 ft / 938 m 329.61° 325.60° Asphalt 0 ft / 0 m 0 ft / 0 m
35 75 ft / 23 m 5,021 ft / 1,530 m 359.90° 355.89° Asphalt 0 ft / 0 m 0 ft / 0 m

Map

Weather


0- 5 10 15 20 25 30 35+ Temperature / ° C

Clouds and Precipitation
Forecast for 2018-05-22 12:00 UTC. Updated an hour ago

Ground ~20,000 ft ~40,000 ft Winds

METAR

KBKS 221235Z AUTO 05003KT 4SM SCT095 23/23 A2995 RMK AO1 T02340225

TAF

Not found

Frequencies

Recorded 118.12 MHz AWOS 3
Approach 119.90 MHz KINGSVILLE APP
Unicom 122.80 MHz CTAF/UNICOM
Departure 119.90 MHz KINGSVILLE DEP
Warning: Do not use this data for real-world aviation or navigation. No guarantee of current accuracy is given.